Location: Aytr�
(46.1357°N, 1.1145°W)
Time: 00:55:37
(UTC+00:00)

ISS - Pass Details

Date: 24 September 2021
Orbit: 417 x 423 km, 51.6° (Epoch: 27 October)

Event Time Altitude Azimuth Distance (km) Brightness Sun altitude
Rises 20:29:52 0° 292° (WNW) 2,368 1.4 -26.1°
Reaches altitude 10° 20:32:06 10° 302° (WNW) 1,504 0.1 -26.5°
Enters shadow 20:33:48 23° 323° (NW) 937 -1.4 -26.7°
